This is the latest recevied weather packets stored in our database for station/object VK2BLR. If no packets are shown the sender has not sent any weather packets the latest 10 day(s).
| Time | Temp. | Humidity | Pressure | Rain* | Wind** | Luminosity | Snow |
|---|---|---|---|---|---|---|---|
| 1787925091 | 7.78° C | 75% | 1026.3 hPa | 0 mm | - | - | - |
| 1787924191 | 7.78° C | 75% | 1026.3 hPa | 0 mm | - | - | - |
| 1787923290 | 7.78° C | 75% | 1026.3 hPa | 0 mm | - | - | - |
| 1787922391 | 8.33° C | 75% | 1026.4 hPa | 0 mm | - | - | - |
| 1787921491 | 8.33° C | 75% | 1026.6 hPa | 0 mm | - | - | - |
| 1787920591 | 8.33° C | 74% | 1026.9 hPa | 0 mm | - | - | - |
| 1787919691 | 8.33° C | 74% | 1026.9 hPa | 0 mm | - | - | - |
| 1787918792 | 8.33° C | 73% | 1026.8 hPa | 0 mm | - | - | - |
| 1787917891 | 8.89° C | 73% | 1026.5 hPa | 0 mm | - | - | - |
| 1787916991 | 8.89° C | 72% | 1026.5 hPa | 0 mm | - | - | - |
| 1787916092 | 9.44° C | 72% | 1026.6 hPa | 0 mm | - | - | - |
| 1787915192 | 9.44° C | 71% | 1026.5 hPa | 0 mm | - | - | - |
| 1787914291 | 10° C | 71% | 1026.5 hPa | 0 mm | - | - | - |
| 1787913391 | 10° C | 71% | 1026.6 hPa | 0 mm | - | - | - |
| 1787912491 | 10.56° C | 70% | 1026.6 hPa | 0 mm | - | - | - |
| 1787911592 | 10.56° C | 70% | 1026.7 hPa | 0 mm | - | - | - |
| 1787910691 | 11.11° C | 69% | 1026.5 hPa | 0 mm | - | - | - |
| 1787909791 | 11.67° C | 68% | 1026.5 hPa | 0 mm | - | - | - |
| 1787908892 | 12.22° C | 67% | 1026.5 hPa | 0 mm | - | - | - |
| 1787907992 | 12.22° C | 66% | 1026.3 hPa | 0 mm | - | - | - |
| 1787907091 | 12.78° C | 61% | 1026.1 hPa | 0 mm | - | - | - |
| 1787906192 | 12.78° C | 61% | 1026.2 hPa | 0 mm | - | - | - |
| 1787905291 | 13.33° C | 61% | 1026.1 hPa | 0 mm | - | - | - |
| 1787904392 | 13.33° C | 61% | 1025.9 hPa | 0 mm | - | - | - |
| 1787903492 | 13.89° C | 61% | 1025.6 hPa | 0 mm | - | - | - |
* Rain latest hour (hover to see other rain measurements)
** Current wind speed in m/s (hover to see current wind gust speed)